Location: Albany
(35.0170°S, 117.8920°E)
Time: 03:57:00
(UTC+08:00)

Vanguard 1 - Pass Details

Date: 01 February 2021
Orbit: 649 x 3833 km, 34.2° (Epoch: 26 February)

Event Time Altitude Azimuth Distance (km) Brightness Sun altitude
Rises 04:26:29 0° 263° (W) 3,170 - -12.1°
Reaches altitude 10° 04:29:09 10° 273° (W) 2,113 - -11.6°
Exits shadow 04:29:49 14° 277° (W) 1,863 10.9 -11.5°
Maximum altitude 04:33:12 32° 337° (NNW) 1,114 10.0 -10.9°
Drops below altitude 10° 04:37:26 10° 41° (NE) 2,205 12.0 -10.1°
Sets 04:40:17 0° 50° (NE) 3,336 13.1 -9.6°
